Ardmore, OK

2:25 AM CST on January 19, 2018 (GMT -0600)
Ardmore Municipal

Weather History for KADM - December, 2013

Change the Weather History Date:

Thursday, December 19, 2013

  Actual Average Record
Temperature  
Mean Temperature 60 °F -  
Max Temperature 68 °F 50 °F 71 °F (2012)
Min Temperature 53 °F 31 °F 9 °F (2016)
Degree Days  
Heating Degree Days 4    
Growing Degree Days 10 (Base 50)    
Moisture  
Dew Point 53 °F    
Average Humidity 80    
Maximum Humidity 88    
Minimum Humidity 68    
Precipitation  
Precipitation 0.00 in - - ()
Sea Level Pressure  
Sea Level Pressure 29.83 in    
Wind  
Wind Speed 8 mph (SSE)    
Max Wind Speed 21 mph    
Max Gust Speed 29 mph    
Visibility 10 miles    
Events      
Averages and records for this station are not official NWS values.
T = Trace of Precipitation, MM = Missing Value Source: NWS Daily Summary

Daily Weather History Graph

Daily Weather History Graph

Search for Another Location

Airport or City:

Trip Planner

Search our weather history database for the weather conditions in past years. The results will help you decide how hot, cold, wet, or windy it might be!

Date:

Astronomy

Dec. 19, 2013 Rise Set
Actual Time 7:29 AM CST 5:21 PM CST
Civil Twilight 7:01 AM CST 5:49 PM CST
Nautical Twilight 6:30 AM CST 6:20 PM CST
Astronomical Twilight 5:59 AM CST 6:51 PM CST
Moon 7:42 PM CST 8:53 AM CST
Length of Visible Light 10h 47m
Length of Day
9h 51m
Waning Gibbous, 95% of the Moon is Illuminated
Dec 19
Waning Gibbous
Dec 25
Last Quarter
Jan 1
New
Jan 7
First Quarter
Jan 15
Full

Hourly Weather History & Observations

Time (CST) Temp. Dew Point Humidity Pressure Visibility Wind Dir Wind Speed Gust Speed Precip Events Conditions
12:15 AM 55.9 °F 47.8 °F 74% 29.94 in 10.0 mi South 6.9 mph - N/A   Clear
12:35 AM 55.9 °F 48.2 °F 75% 29.94 in 10.0 mi South 5.8 mph - N/A   Clear
12:55 AM 55.8 °F 48.2 °F 76% 29.94 in 10.0 mi South 5.8 mph - N/A   Clear
1:15 AM 55.2 °F 48.0 °F 77% 29.92 in 10.0 mi South 6.9 mph - N/A   Clear
1:35 AM 54.7 °F 48.2 °F 79% 29.91 in 10.0 mi SSE 5.8 mph - N/A   Clear
1:55 AM 54.3 °F 47.8 °F 79% 29.91 in 10.0 mi SSE 4.6 mph - N/A   Clear
2:15 AM 53.6 °F 47.7 °F 80% 29.91 in 10.0 mi SSE 5.8 mph - N/A   Clear
2:35 AM 54.0 °F 48.4 °F 81% 29.91 in 10.0 mi SSE 5.8 mph - N/A   Clear
2:55 AM 54.7 °F 48.7 °F 80% 29.90 in 10.0 mi SSE 6.9 mph - N/A   Clear
3:15 AM 54.7 °F 49.1 °F 81% 29.90 in 10.0 mi SSE 5.8 mph - N/A   Clear
3:35 AM 54.7 °F 49.5 °F 83% 29.90 in 10.0 mi SSE 5.8 mph - N/A   Clear
3:55 AM 53.8 °F 49.1 °F 84% 29.89 in 10.0 mi SE 5.8 mph - N/A   Scattered Clouds
4:15 AM 53.2 °F 49.1 °F 86% 29.89 in 10.0 mi SSE 4.6 mph - N/A   Scattered Clouds
4:35 AM 53.8 °F 49.8 °F 86% 29.89 in 10.0 mi SSE 8.1 mph - N/A   Mostly Cloudy
4:55 AM 54.5 °F 50.4 °F 86% 29.87 in 10.0 mi SSE 10.4 mph - N/A   Overcast
5:15 AM 55.9 °F 51.8 °F 86% 29.87 in 10.0 mi South 12.7 mph 20.7 mph N/A   Overcast
5:35 AM 56.5 °F 52.2 °F 85% 29.86 in 10.0 mi South 11.5 mph 17.3 mph N/A   Overcast
6:55 AM 57.2 °F 53.6 °F 88% 29.85 in - SSE 8.1 mph - N/A   Unknown
7:55 AM 57.2 °F 53.6 °F 88% 29.85 in - South 9.2 mph 16.1 mph N/A   Overcast
8:55 AM 57.2 °F 53.6 °F 88% 29.86 in - South 12.7 mph 19.6 mph N/A   Overcast
9:55 AM 60.8 °F 55.4 °F 82% 29.85 in - South 15.0 mph 21.9 mph N/A   Overcast
10:55 AM 62.6 °F 55.4 °F 77% 29.84 in - South 19.6 mph 27.6 mph N/A   Overcast
11:55 AM 64.4 °F 55.4 °F 73% 29.81 in - South 19.6 mph 28.8 mph N/A   Mostly Cloudy
12:55 PM 66.2 °F 55.4 °F 68% 29.77 in - South 20.7 mph 28.8 mph N/A   Mostly Cloudy
1:55 PM 66.2 °F 55.4 °F 68% 29.74 in - South 16.1 mph 28.8 mph N/A   Scattered Clouds
2:55 PM 66.2 °F 55.4 °F 68% 29.72 in - South 20.7 mph 25.3 mph N/A   Scattered Clouds
3:55 PM 68.0 °F 57.2 °F 68% 29.72 in - South 11.5 mph - N/A   Clear
4:55 PM 66.2 °F 57.2 °F 73% 29.72 in - SE 11.5 mph - N/A   Clear
5:55 PM 62.6 °F 57.2 °F 82% 29.72 in - ESE 4.6 mph - N/A   Clear
7:55 PM 64.4 °F 57.2 °F 77% 29.72 in - ESE 4.6 mph - N/A   Clear
8:55 PM 64.4 °F 57.2 °F 77% 29.72 in - South 4.6 mph - N/A   Clear
9:55 PM 62.6 °F 57.2 °F 82% 29.73 in - South 9.2 mph - N/A   Clear
10:35 PM 63.0 °F 57.7 °F 83% 29.72 in 10.0 mi South 8.1 mph - N/A   Clear
10:55 PM 63.1 °F 57.7 °F 83% 29.73 in 10.0 mi South 5.8 mph - N/A   Clear
11:15 PM 61.9 °F 57.6 °F 86% 29.72 in 10.0 mi South 6.9 mph - N/A   Clear
11:35 PM 62.4 °F 57.6 °F 84% 29.73 in 10.0 mi South 3.5 mph - N/A   Clear
11:55 PM 62.1 °F 57.6 °F 85% 29.72 in 10.0 mi Calm Calm - N/A   Clear